sat.trackr.live / text

‹ back to catalog

DEAR-5

NORAD 67070 · 2025-296B

PAYLOAD ACTIVE UNKNOWN

§ Identity

Operator
Country
PRC
Launch date
2025-12-13
Launch site
JSC
Launch vehicle
Mass (kg)
RCS (m²)

External: N2YO · Heavens-Above · Gunter

§ Orbital elements

Epoch: 2026-05-25T00:28:39.764352Z

Period
94.90 min
Inclination
41.3594°
Eccentricity
0.0016306
Mean motion
15.17447287 rev/d
Perigee alt
502.3 km
Apogee alt
524.8 km
Semi-major
6,891.7 km
B*
2.0639e-4
RAAN
249.8306°
Arg perigee
59.1272°
Mean anomaly
301.1151°
Rev number
2,475

§ Raw data

DEAR-51 67070U 25296B   26145.01990468  .00004019  00000+0  20639-3 0  99952 67070  41.3594 249.8306 0016306  59.1272 301.1151 15.17447287 24758

JSON: /api/v1/satellites/67070 · /tle

For live sub-satellite position, see the globe view (requires WebGL).

§ Visibility from observer

Set your observer location to see the next 7 days of passes ≥ 10°. The values pass through the URL so the page stays shareable.

No JS? Fill the form by hand. The geolocation button needs JavaScript.